Lid_Strength_Index
5 6 6 5 5 5 4 4 2 1 0 0 0 0 0 1 1 1 1 1 1 2
5 5 5 5 5 5 4 3 3 2 1 0 0 0 0 1 1 1 1 1 1 1
5 5 4 4 4 4 4 4 4 3 2 1 0 0 1 1 1 1 1 1 1 1
5 5 4 4 4 4 4 4 4 3 2 1 1 1 1 1 1 2 1 2 2 2
5 5 5 5 4 4 4 3 3 3 2 2 1 1 1 2 2 3 4 4 4 6
6 6 6 5 5 4 4 4 3 3 3 1 1 1 2 5 6 6 6 6 7 7
6 6 6 5 5 5 4 4 4 3 2 1 1 2 4 6 7 7 7 7 7 7
6 5 5 6 5 5 4 4 4 3 1 2 2 3 5 6 7 7 7 6 6 5
6 6 5 6 6 4 5 4 4 2 2 3 4 6 6 6 7 7 7 8 7 7
6 6 6 6 5 6 6 4 2 3 4 4 4 7 7 7 7 8 8 8 8 8
6 7 6 6 6 6 5 3 5 5 5 5 6 8 8 7 8 8 8 9 9 9
7 7 7 7 7 6 5 6 6 6 6 6 8 8 8 8 8 9 9 9 9 9
9 8 7 7 7 6 7 6 6 6 6 7 7 7 7 8 8 10 10 9 9 9
9 9 8 7 6 7 7 7 7 8 8 8 8 9 9 9 10 10 10 10 9 9